Location: �perlecques
(50.8057°N, 2.1521°E)
Time: 21:06:33
(UTC+00:00)

Tiros 1 - Pass Details

Date: 10 August 2021
Orbit: 630 x 663 km, 48.4° (Epoch: 28 September)

Event Time Altitude Azimuth Distance (km) Brightness Sun altitude
Rises 18:30:58 0° 276° (W) 2,992 12.8 6.6°
Reaches altitude 10° 18:33:22 10° 272° (W) 2,075 11.7 6.2°
Maximum altitude 18:38:00 52° 197° (SSW) 820 7.8 5.5°
Drops below altitude 10° 18:42:36 10° 121° (ESE) 2,052 9.1 4.8°
Sets 18:44:58 0° 117° (ESE) 2,956 9.9 4.4°
